Regional Weather Roundup
Issued by NWS Newport/Morehead, NC

Current Version | Previous Version | Text Only | Print | Product List | Glossary Off
Versions: 1 2 3 4 5 6 7 8 9 10 11 12 13 14 15 16 17 18 19 20 21 22 23 24 25 26 27 28 29 30 31 32 33 34 35 36 37 38 39 40 41 42 43 44 45 46 47 48 49 50
000 ASUS42 KMHX 141710 RWRMHX WEATHER ROUNDUP FOR EASTERN NORTH CAROLINA NATIONAL WEATHER SERVICE NEWPORT/MOREHEAD CITY NC 100 PM EDT SUN SEP 14 2014 NOTE: "FAIR" INDICATES FEW OR NO CLOUDS BELOW 12,000 FEET WITH NO SIGNIFICANT WEATHER AND/OR OBSTRUCTIONS TO VISIBILITY NCZ015>017-031-032-045>047-102-103-141800- NORTH COAST CITY SKY/WX TMP DP RH WIND PRES REMARKS EDENTON MOSUNNY 74 62 64 NE10 30.23F ELIZABETH CITY PTSUNNY 72 60 66 NE13 30.24S KITTY HAWK CLOUDY 72 61 68 N8 30.22S MANTEO CLOUDY 72 62 68 N17G24 30.23S $$ NCZ045>047-081-094-103-104-141800- CENTRAL COAST CITY SKY/WX TMP DP RH WIND PRES REMARKS FRISCO CLOUDY 74 67 78 NE13G23 30.19F SWANQUARTER N/A 75 N/A N/A NE9G17 30.18S $$ NCZ095-097-098-100-101-141800- SOUTHERN COAST CITY SKY/WX TMP DP RH WIND PRES REMARKS BEAUFORT PTSUNNY 77 69 76 N16G22 30.18F CEDAR ISLAND N/A 75 N/A N/A N13G23 30.24S JACKSONVILLE CLOUDY 74 64 71 NE8 30.20F NEWPORT NOT AVBL PINEY ISLAND CLOUDY 77 66 68 NE15 30.19F WILMINGTON CLOUDY 74 66 76 N6 30.20F $$ NCZ011>013-027>030-043-044-078>080-089-090>093-098-141800- COASTAL PLAIN CITY SKY/WX TMP DP RH WIND PRES REMARKS AHOSKIE PTSUNNY 70 57 63 NE6 30.25F CLINTON CLOUDY 68 62 78 NE3 30.25S ELIZABETHTOWN CLOUDY 70 62 75 CALM 30.23S GOLDSBORO CLOUDY 72 64 76 VRB3 30.22S GREENVILLE PTSUNNY 75 59 57 E8 30.24F HAVELOCK CLOUDY 76 66 71 NE9 30.21F KENANSVILLE CLOUDY 68 59 72 N5 30.25S KINSTON CLOUDY 72 59 64 NE8 30.24F NEW BERN CLOUDY 75 64 69 NE10 30.22F RICHLANDS CLOUDY 72 61 68 N12 30.22S ROANOKE RAPIDS NOT AVBL ROCKY MOUNT CLOUDY 73 60 63 NE7 30.25F WASHINGTON PTSUNNY 72 62 70 NE8 30.23F WHITEVILLE CLOUDY 69 64 83 NE7 30.21F $$ AMZ130-135-150-152-154-156-158-170-250-252-270-ANZ085-086-088-633-658-670-141800- MARINE OBSERVATIONS STATION/POSITION TIME TEMP WIND PRES WAVE SWELL AIR SEA DIR/SP/G HT/PER HT/PER (UTC) (F) (DEG/KT/KT) (MB) (FT/S) (FT/S) CHESAPEAKE LIGHT 1600 67 30/ 16/ 19 1025.0 BUOY 44014 1700 71 79 20/ 17/ 21 1022.5 6/ 7 2/15 DUCK 1700 69 77 10/ 18/ 20 1023.0 2E DUCK 1700 N/A 6/ 7 OREGON INLET 1700 72 78 360/ 12/ 20 1023.0 BUOY 44095 1700 76 N/A 6/ 7 20E OREGON INLET NOT AVBL HATTERAS CG 1700 74 80 20/ 17/ 21 1022.7 DIAMOND BUOY 1700 75 350/ 17/ 21 1021.4 4/ 8 2/ 8 CAPE LOOKOUT 1600 74 30/ 19/ 21 1022.2 BEAUFORT LAB 1700 76 81 30/ 11/ 16 1021.8 30 SE NEW RIVER 1600 76 82 40/ 17/ 21 1021.8 5 SE WRIGHTSVILL 1600 72 82 70/ 14/ 17 N/A BUOY 41002 1650 79 83 260/ 14/ 17 1022.3 3/ 4 2/ 9 BUOY 41004 1700 79 83 140/ 2/ 2 1021.5 2/ 4 2/10 $$

USA.gov is the U.S. government's official web portal to all federal, state and local government web resources and services.